Greenwood, SC

5:05 PM EDT on September 26, 2016 (GMT -0400)
Greenwood County

Weather History for KGRD - December, 2011

Change the Weather History Date:

Friday, December 30, 2011

  Actual Average (KAND) Record (KAND)
Temperature  
Mean Temperature 46 °F -  
Max Temperature 57 °F 52 °F 76 °F (1984)
Min Temperature 36 °F 35 °F 15 °F (1983)
Degree Days  
Heating Degree Days 18    
Moisture  
Dew Point 42 °F    
Average Humidity 73    
Maximum Humidity 86    
Minimum Humidity 64    
Precipitation  
Precipitation 0.00 in - - ()
Sea Level Pressure  
Sea Level Pressure 30.05 in    
Wind  
Wind Speed 6 mph (SSW)    
Max Wind Speed 14 mph    
Max Gust Speed -    
Visibility 10 miles    
Events      
Averages and records for this station are not official NWS values.
T = Trace of Precipitation, MM = Missing Value Source: NWS Daily Summary

Daily Weather History Graph

Daily Weather History Graph

Search for Another Location

Airport or City:

Trip Planner

Search our weather history database for the weather conditions in past years. The results will help you decide how hot, cold, wet, or windy it might be!

Date:

Astronomy

Dec. 30, 2011 Rise Set
Actual Time 7:34 AM EST 5:28 PM EST
Civil Twilight 7:06 AM EST 5:55 PM EST
Nautical Twilight 6:35 AM EST 6:27 PM EST
Astronomical Twilight 6:04 AM EST 6:57 PM EST
Moon 11:09 AM EST (12/30) 11:43 PM EST (12/30)
Length of Visible Light 10h 49m
Length of Day
9h 53m
Waxing Crescent, 35% of the Moon is Illuminated
Dec 30
Waxing Crescent
Jan 1
First Quarter
Jan 9
Full
Jan 16
Last Quarter
Jan 23
New

Hourly Weather History & Observations

Time (EST) Temp. Windchill Dew Point Humidity Pressure Visibility Wind Dir Wind Speed Gust Speed Precip Events Conditions
12:56 AM 43.0 °F 38.8 °F 34.0 °F 71% 30.07 in 10.0 mi SW 6.9 mph - N/A   Clear
1:56 AM 43.0 °F - 33.1 °F 68% 30.06 in 10.0 mi Calm Calm - N/A   Clear
2:56 AM 42.1 °F 39.2 °F 33.1 °F 70% 30.07 in 10.0 mi SSW 4.6 mph - N/A   Clear
3:56 AM 39.0 °F - 33.1 °F 79% 30.08 in 10.0 mi Calm Calm - N/A   Clear
5:56 AM 36.0 °F 31.1 °F 32.0 °F 86% 30.10 in 10.0 mi SSW 5.8 mph - N/A   Clear
7:56 AM 37.9 °F 33.5 °F 33.1 °F 83% 30.12 in 10.0 mi SW 5.8 mph - N/A   Clear
8:56 AM 44.1 °F 41.5 °F 37.9 °F 79% 30.12 in 10.0 mi South 4.6 mph - N/A   Clear
9:36 AM 46.4 °F 42.4 °F 37.4 °F 71% 30.12 in 10.0 mi SSW 8.1 mph - N/A   Mostly Cloudy
9:56 AM 50.0 °F - 39.9 °F 68% 30.12 in 10.0 mi SW 4.6 mph - N/A   Scattered Clouds
10:56 AM 55.0 °F - 44.1 °F 67% 30.11 in 10.0 mi SW 9.2 mph - N/A   Partly Cloudy
11:56 AM 55.0 °F - 44.1 °F 67% 30.08 in 10.0 mi SSW 8.1 mph - N/A   Overcast
12:56 PM 55.9 °F - 44.1 °F 64% 30.06 in 10.0 mi SSW 12.7 mph - N/A   Overcast
1:56 PM 57.0 °F - 45.0 °F 64% 30.03 in 10.0 mi SW 11.5 mph - 0.00 in   Overcast
2:56 PM 57.9 °F - 46.0 °F 65% 30.01 in 10.0 mi SSW 9.2 mph - N/A   Overcast
3:56 PM 57.0 °F - 46.9 °F 69% 30.01 in 10.0 mi SSW 6.9 mph - 0.00 in   Overcast
4:56 PM 57.9 °F - 46.9 °F 67% 30.01 in 10.0 mi South 10.4 mph - N/A   Clear
5:56 PM 55.0 °F - 46.9 °F 74% 29.99 in 10.0 mi South 6.9 mph - N/A   Clear
6:56 PM 52.0 °F - 46.9 °F 83% 29.99 in 10.0 mi South 4.6 mph - N/A   Clear
7:56 PM 52.0 °F - 46.9 °F 83% 30.00 in 10.0 mi South 4.6 mph - N/A   Overcast
8:56 PM 55.0 °F - 48.0 °F 77% 30.00 in 10.0 mi South 6.9 mph - N/A   Overcast
9:56 PM 55.9 °F - 48.0 °F 75% 29.99 in 10.0 mi SSW 13.8 mph - N/A   Scattered Clouds
10:56 PM 55.9 °F - 48.9 °F 77% 29.98 in 10.0 mi South 11.5 mph - N/A   Scattered Clouds
11:56 PM 57.0 °F - 51.1 °F 81% 29.96 in 10.0 mi SSW 10.4 mph - N/A   Mostly Cloudy